Hourly Data Report for November 27, 2016

All times are specified in Local Standard Time (LST). Add 1 hour to adjust for Daylight Saving Time where and when it is observed.

VICTORIA UNIVERSITY CS
BRITISH COLUMBIA

48°27'25.200" N
123°18'16.600" W
60.10 m
1018598
71783
WYJ

Download Data

Hourly Data (November 2016)
Hourly Data Report for November 27, 2016
TIME Temp Definition
°C
Dew Point Definition
°C
Rel Hum Definition
%
Wind Dir Definition
10's deg

Wind Spd Definition
km/h
Visibility Definition
km
Stn Press Definition
kPa
Hmdx Definition


Wind Chill Definition


Weather Definition


00:00 5.3 2.8 84 30 5   99.52     LegendNANA
01:00 5.5 3.1 84 34 7   99.58     LegendNANA
02:00 5.1 3.8 92 25 2   99.66     LegendNANA
03:00 4.9 4.0 95 22 1   99.76     LegendNANA
04:00 3.7 2.9 94 18 3   99.79     LegendNANA
05:00 4.1 3.7 97 20 2   99.77     LegendNANA
06:00 2.8 2.3 96 25 3   99.90     LegendNANA
07:00 4.9 4.6 98 19 3   99.94     LegendNANA
08:00 6.3 5.2 93 18 3   99.96     LegendNANA
09:00 6.4 5.6 95 18 2   99.96     LegendNANA
10:00 6.8 5.6 92 17 4   99.94     LegendNANA
11:00 7.1 5.7 91 15 7   99.91     LegendNANA
12:00 7.0 5.5 90 15 6   99.90     LegendNANA
13:00 7.1 5.4 89 15 6   99.82     LegendNANA
14:00 7.2 5.7 90 14 4   99.58     LegendNANA
15:00 7.1 5.6 90 13 3   99.42     LegendNANA
16:00 6.8 5.1 89 14 2   99.18     LegendNANA
17:00 7.3 5.9 91 13 4   98.96     LegendNANA
18:00 7.4 6.2 92 19 8   98.97     LegendNANA
19:00 5.9 5.1 94 23 3   98.92     LegendNANA
20:00 6.1 5.1 93 24 10   98.89     LegendNANA
21:00 6.2 3.6 83 28 11   99.01     LegendNANA
22:00 5.7 3.0 83 28 6   99.14     LegendNANA
23:00 4.2 3.0 92 32 7   99.33     LegendNANA

Notes on Data Quality.

Legend

  • E = Estimated
  • M = Missing
  • NA = Not Available
Date modified: